This is the latest recevied weather packets stored in our database for station/object KD5FHA. If no packets are shown the sender has not sent any weather packets the latest 10 day(s).
| Time | Temp. | Humidity | Pressure | Rain* | Wind** | Luminosity | Snow |
|---|---|---|---|---|---|---|---|
| 1788617297 | 27.78° C | 74% | 1015.7 hPa | 0 mm | - | 68 W/m² | - |
| 1788616983 | 27.78° C | 75% | 1015.7 hPa | 0 mm | - | 45 W/m² | - |
| 1788616682 | 27.78° C | 75% | 1015.7 hPa | 0 mm | - | 44 W/m² | - |
| 1788616378 | 27.78° C | 76% | 1015.8 hPa | 0 mm | - | 43 W/m² | - |
| 1788616077 | 27.22° C | 77% | 1015.6 hPa | 0 mm | - | 42 W/m² | - |
| 1788615771 | 27.22° C | 78% | 1015.7 hPa | 0 mm | - | 41 W/m² | - |
| 1788615466 | 26.67° C | 78% | 1015.6 hPa | 0 mm | - | 41 W/m² | - |
| 1788615161 | 26.67° C | 79% | 1015.6 hPa | 0 mm | - | 39 W/m² | - |
| 1788614860 | 26.67° C | 80% | 1015.5 hPa | 0 mm | - | 38 W/m² | - |
| 1788614555 | 26.11° C | 80% | 1015.5 hPa | 0 mm | - | 37 W/m² | - |
| 1788614250 | 26.11° C | 81% | 1015.6 hPa | 0 mm | - | 35 W/m² | - |
| 1788613945 | 26.11° C | 81% | 1015.4 hPa | 0 mm | - | 35 W/m² | - |
| 1788613640 | 25.56° C | 82% | 1015.4 hPa | 0 mm | - | 30 W/m² | - |
| 1788613339 | 25.56° C | 82% | 1015.4 hPa | 0 mm | - | 26 W/m² | - |
| 1788613034 | 25.56° C | 83% | 1015.1 hPa | 0 mm | - | 24 W/m² | - |
| 1788612729 | 25° C | 84% | 1015 hPa | 0 mm | - | 23 W/m² | - |
| 1788612433 | 25° C | 84% | 1015.1 hPa | 0 mm | - | 22 W/m² | - |
| 1788612121 | 25° C | 84% | 1014.9 hPa | 0 mm | - | 21 W/m² | - |
| 1788611816 | 25° C | 84% | 1015 hPa | 0 mm | - | 19 W/m² | - |
| 1788611514 | 24.44° C | 84% | 1015.4 hPa | 0 mm | - | 17 W/m² | - |
| 1788611213 | 24.44° C | 84% | 1015.1 hPa | 0 mm | - | 15 W/m² | - |
| 1788610908 | 25° C | 84% | 1015.1 hPa | 0 mm | - | 12 W/m² | - |
| 1788610602 | 25° C | 84% | 1015.1 hPa | 0 mm | - | 8 W/m² | - |
| 1788610298 | 25° C | 84% | 1015 hPa | 0 mm | - | 5 W/m² | - |
| 1788609997 | 24.44° C | 84% | 1015 hPa | 0 mm | - | 3 W/m² | - |
* Rain latest hour (hover to see other rain measurements)
** Current wind speed in m/s (hover to see current wind gust speed)